Weather History for Toledo Metcalf, OH

Change the Weather History Date:

Saturday, January 11, 2014

  Actual Average (KTOL) Record (KTOL)
Temperature  
Mean Temperature 38 °F 25 °F  
Max Temperature 43 °F 33 °F 68 °F (1890)
Min Temperature 33 °F 18 °F -14 °F (1979)
Degree Days  
Heating Degree Days 27 40  
Month to date heating degree days 431  
Since 1 July heating degree days 2756  
Cooling Degree Days 0 0  
Month to date cooling degree days 0  
Year to date cooling degree days 0  
Moisture  
Dew Point 37 °F    
Average Humidity 92    
Maximum Humidity 100    
Minimum Humidity 79    
Precipitation  
Precipitation 0.18 in 0.07 in 0.76 in (2013)
Month to date precipitation 0.81  
Year to date precipitation 0.81  
Snow  
Snow 0.00 in 0.30 in - ()
Month to date snowfall 3.8  
Since 1 July snowfall 13.3  
Snow Depth -    
Sea Level Pressure  
Sea Level Pressure 29.50 in    
Wind  
Wind Speed 13 mph (SSW)    
Max Wind Speed 21 mph    
Max Gust Speed 29 mph    
Visibility 4 miles    
Events Fog , Rain    
T = Trace of Precipitation, MM = Missing Value Source: NWS Daily Summary

Daily Weather History Graph

Daily Weather History Graph

Search for Another Location

Airport:

Trip Planner

Search our weather history database for the weather conditions in past years. The results will help you decide how hot, cold, wet, or windy it might be!

Date:

Astronomy

Jan. 11, 2014 Rise Set
Actual Time 7:59 AM EST 5:24 PM EST
Civil Twilight 7:28 AM EST 5:55 PM EST
Nautical Twilight 6:54 AM EST 6:29 PM EST
Astronomical Twilight 6:21 AM EST 7:03 PM EST
Moon 2:08 PM EST (1/11) 4:02 AM EST (1/11)
Length of Visible Light 10h 26m
Length of Day
9h 24m
Waxing Gibbous, 83% of the Moon is Illuminated
Jan 11
Waxing Gibbous
Jan 15
Full
Jan 24
Last Quarter
Jan 30
New
Feb 6
First Quarter

Hourly Weather History & Observations

Time (EST) Temp. Windchill Dew Point Humidity Pressure Visibility Wind Dir Wind Speed Gust Speed Precip Events Conditions
12:00 AM 39.2 °F 31.2 °F 39.2 °F 100% 29.68 in 3.0 mi SSE 13.8 mph - 0.00 in Rain Light Rain
12:13 AM 41.0 °F 32.8 °F 39.2 °F 93% 29.68 in 4.0 mi SSE 16.1 mph - 0.01 in Rain Light Rain
12:23 AM 41.0 °F 32.5 °F 39.2 °F 93% 29.67 in 4.0 mi South 17.3 mph - 0.02 in Rain Light Rain
12:34 AM 41.0 °F 32.5 °F 39.2 °F 93% 29.66 in 5.0 mi SSE 17.3 mph - 0.02 in Rain Light Rain
12:42 AM 41.0 °F 32.8 °F 39.2 °F 93% 29.66 in 5.0 mi South 16.1 mph - 0.02 in Rain Light Rain
12:53 AM 41.0 °F 33.1 °F 39.9 °F 96% 29.66 in 5.0 mi South 15.0 mph - 0.02 in Rain Light Rain
1:53 AM 39.9 °F 32.1 °F 39.0 °F 97% 29.63 in 3.0 mi South 13.8 mph - 0.03 in Rain Light Rain
2:53 AM 39.9 °F 32.5 °F 39.0 °F 97% 29.60 in 4.0 mi South 12.7 mph - 0.01 in Rain Light Rain
3:33 AM 39.2 °F 32.5 °F 37.4 °F 93% 29.56 in 2.5 mi South 10.4 mph - 0.00 in Rain Light Rain
3:53 AM 39.9 °F 33.4 °F 39.0 °F 97% 29.57 in 2.5 mi South 10.4 mph - 0.00 in Rain Light Rain
4:01 AM 39.2 °F 32.5 °F 39.2 °F 100% 29.55 in 3.0 mi South 10.4 mph - 0.00 in Rain Light Rain
4:16 AM 39.2 °F 31.2 °F 37.4 °F 93% 29.55 in 2.5 mi South 13.8 mph - 0.00 in   Overcast
4:44 AM 39.2 °F 32.0 °F 39.2 °F 100% 29.54 in 4.0 mi South 11.5 mph - 0.00 in   Overcast
4:53 AM 39.9 °F 33.4 °F 39.0 °F 97% 29.55 in 3.0 mi South 10.4 mph - 0.00 in   Overcast
5:14 AM 41.0 °F 35.8 °F 39.2 °F 93% 29.53 in 4.0 mi South 8.1 mph - N/A   Overcast
5:39 AM 39.2 °F 33.6 °F 37.4 °F 93% 29.52 in 2.0 mi South 8.1 mph - N/A   Overcast
5:49 AM 39.2 °F 33.0 °F 39.2 °F 100% 29.52 in 3.0 mi South 9.2 mph - N/A   Overcast
5:53 AM 39.9 °F 33.9 °F 39.0 °F 97% 29.53 in 3.0 mi South 9.2 mph - N/A   Overcast
6:17 AM 41.0 °F 34.7 °F 39.2 °F 93% 29.52 in 2.0 mi South 10.4 mph - N/A   Overcast
6:24 AM 42.8 °F 37.5 °F 39.2 °F 87% 29.51 in 1.2 mi South 9.2 mph - N/A   Overcast
6:27 AM 42.8 °F 37.5 °F 39.2 °F 87% 29.50 in 0.8 mi South 9.2 mph - 0.01 in Rain Light Rain
6:40 AM 39.2 °F 33.0 °F 39.2 °F 100% 29.48 in 0.2 mi South 9.2 mph - 0.01 in Fog , Rain Light Rain
6:53 AM 39.9 °F 34.5 °F 39.0 °F 97% 29.48 in 0.2 mi South 8.1 mph - 0.01 in Fog Fog
7:07 AM 39.2 °F 33.0 °F 37.4 °F 93% 29.46 in 0.2 mi South 9.2 mph - N/A Fog Fog
7:15 AM 39.2 °F 33.6 °F 37.4 °F 93% 29.46 in 0.2 mi South 8.1 mph - N/A Fog Fog
7:53 AM 39.0 °F 32.8 °F 37.9 °F 96% 29.45 in 0.2 mi South 9.2 mph - N/A Fog Fog
8:10 AM 39.2 °F 35.0 °F 37.4 °F 93% 29.43 in 0.2 mi South 5.8 mph - N/A Fog Fog
8:19 AM 39.2 °F 33.6 °F 37.4 °F 93% 29.43 in 0.2 mi South 8.1 mph - N/A Fog Fog
8:53 AM 39.0 °F 33.4 °F 37.9 °F 96% 29.43 in 0.2 mi South 8.1 mph - 0.02 in Fog , Rain Light Rain
9:25 AM 39.2 °F 32.5 °F 39.2 °F 100% 29.41 in 0.2 mi South 10.4 mph - 0.01 in Fog , Rain Light Rain
9:38 AM 42.8 °F 36.2 °F 39.2 °F 87% 29.42 in 1.2 mi South 12.7 mph - 0.02 in Rain Light Rain
9:42 AM 42.8 °F 35.8 °F 39.2 °F 87% 29.42 in 2.0 mi South 13.8 mph - 0.02 in Rain Light Rain
9:53 AM 43.0 °F 35.7 °F 41.0 °F 93% 29.42 in 2.0 mi South 15.0 mph - 0.04 in Rain Rain
10:02 AM 42.8 °F 35.8 °F 41.0 °F 93% 29.40 in 2.5 mi South 13.8 mph - 0.01 in Rain Light Rain
10:27 AM 41.0 °F 34.3 °F 39.2 °F 93% 29.40 in 1.8 mi SSW 11.5 mph - 0.03 in Rain Light Rain
10:35 AM 41.0 °F 35.2 °F 39.2 °F 93% 29.40 in 0.8 mi SSW 9.2 mph - 0.03 in Rain Light Rain
10:43 AM 41.0 °F 35.2 °F 39.2 °F 93% 29.39 in 1.2 mi SW 9.2 mph - 0.03 in Rain Light Rain
10:53 AM 41.0 °F 34.7 °F 39.9 °F 96% 29.41 in 1.5 mi SW 10.4 mph - 0.03 in Rain Light Rain
10:59 AM 42.8 °F 35.4 °F 39.2 °F 87% 29.40 in 3.0 mi SW 15.0 mph - N/A   Overcast
11:22 AM 41.0 °F 33.5 °F 39.2 °F 93% 29.41 in 2.5 mi SW 13.8 mph - 0.01 in   Overcast
11:53 AM 41.0 °F 33.5 °F 39.0 °F 93% 29.40 in 1.8 mi SW 13.8 mph - 0.01 in   Overcast
12:02 PM 39.2 °F 30.8 °F 39.2 °F 100% 29.39 in 1.5 mi WSW 15.0 mph - N/A   Overcast
12:45 PM 39.2 °F 31.2 °F 37.4 °F 93% 29.37 in 1.0 mi SW 13.8 mph - N/A   Overcast
12:53 PM 39.0 °F 30.3 °F 37.9 °F 96% 29.39 in 1.0 mi SW 16.1 mph 25.3 mph N/A   Overcast
1:09 PM 39.2 °F 30.5 °F 37.4 °F 93% 29.38 in 0.5 mi SW 16.1 mph 27.6 mph N/A Fog Fog
1:41 PM 37.4 °F 27.8 °F 37.4 °F 100% 29.38 in 1.2 mi SW 17.3 mph 26.5 mph 0.00 in Rain Light Rain
1:47 PM 37.4 °F 27.8 °F 37.4 °F 100% 29.39 in 3.0 mi WSW 17.3 mph 26.5 mph 0.00 in Rain Light Rain
1:53 PM 37.9 °F 27.6 °F 37.0 °F 97% 29.40 in 3.0 mi WSW 20.7 mph 27.6 mph 0.00 in Rain Light Rain
2:05 PM 39.2 °F 29.3 °F 37.4 °F 93% 29.39 in 9.0 mi WSW 20.7 mph 28.8 mph 0.01 in Rain Light Rain
2:24 PM 37.4 °F 27.5 °F 35.6 °F 93% 29.40 in 10.0 mi WSW 18.4 mph - 0.01 in Rain Light Rain
2:53 PM 37.9 °F 28.5 °F 35.1 °F 89% 29.42 in 10.0 mi WSW 17.3 mph 23.0 mph 0.01 in   Overcast
3:53 PM 37.0 °F 27.7 °F 33.1 °F 86% 29.47 in 7.0 mi WSW 16.1 mph 28.8 mph 0.00 in   Overcast
4:53 PM 36.0 °F 26.7 °F 32.0 °F 86% 29.51 in 10.0 mi WSW 15.0 mph 25.3 mph 0.00 in   Overcast
5:24 PM 35.6 °F 25.5 °F 30.2 °F 81% 29.51 in 10.0 mi WSW 17.3 mph 25.3 mph N/A   Overcast
5:53 PM 36.0 °F 25.3 °F 30.9 °F 82% 29.54 in 10.0 mi West 19.6 mph 26.5 mph N/A   Overcast
6:53 PM 35.1 °F 24.8 °F 30.9 °F 85% 29.57 in 8.0 mi WSW 17.3 mph 24.2 mph N/A   Overcast
7:14 PM 35.6 °F 25.9 °F 32.0 °F 87% 29.56 in 4.0 mi WSW 16.1 mph - N/A   Overcast
7:44 PM 33.8 °F 22.8 °F 30.2 °F 87% 29.58 in 7.0 mi WSW 18.4 mph 26.5 mph N/A   Overcast
7:53 PM 34.0 °F 23.8 °F 30.9 °F 89% 29.61 in 6.0 mi WSW 16.1 mph - N/A   Overcast
8:27 PM 33.8 °F 23.9 °F 30.2 °F 87% 29.60 in 10.0 mi WSW 15.0 mph 26.5 mph N/A   Overcast
8:53 PM 34.0 °F 23.4 °F 30.0 °F 85% 29.63 in 8.0 mi West 17.3 mph - N/A   Overcast
9:53 PM 34.0 °F 23.4 °F 28.0 °F 79% 29.67 in 9.0 mi West 17.3 mph 21.9 mph N/A   Overcast
10:53 PM 34.0 °F 26.6 °F 28.0 °F 79% 29.69 in 8.0 mi WSW 9.2 mph - N/A   Overcast
11:53 PM 34.0 °F 24.6 °F 28.0 °F 79% 29.70 in 8.0 mi WSW 13.8 mph - N/A   Overcast